Time,TemperatureF,DewpointF,PressureIn,WindDirection,WindDirectionDegrees,WindSpeedMPH,WindSpeedGustMPH,Humidity,HourlyPrecipIn,Conditions,Clouds,dailyrainin,SolarRadiationWatts/m^2,SoftwareType,DateUTC
2013-02-25 00:00:00,47.8,47.0,30.21,South,180,3.4,5.8,97,0.00,,,0.00,0.00,VWS V14.01,2013-02-25 08:00:00,
2013-02-25 00:03:00,48.4,47.6,30.18,SSE,158,2.5,9.0,97,0.00,,,0.00,0.00,VWS V14.01,2013-02-25 08:03:00,
2013-02-25 00:08:00,48.4,47.3,30.18,SE,135,7.8,11.9,96,0.00,,,0.00,0.00,VWS V14.01,2013-02-25 08:08:00,
2013-02-25 00:13:00,48.4,47.3,30.21,East,90,5.6,11.9,96,0.00,,,0.00,0.00,VWS V14.01,2013-02-25 08:13:00,
2013-02-25 00:15:00,47.5,46.7,30.21,SSW,202,1.1,5.8,97,0.00,,,0.00,0.00,VWS V14.01,2013-02-25 08:15:00,
2013-02-25 00:18:00,48.6,47.5,30.21,South,180,2.7,9.4,96,0.00,,,0.00,0.00,VWS V14.01,2013-02-25 08:18:00,
2013-02-25 00:23:00,48.6,47.5,30.21,SSW,202,2.7,9.4,96,0.00,,,0.00,0.00,VWS V14.01,2013-02-25 08:23:00,
2013-02-25 00:28:00,48.6,47.5,30.21,South,180,3.6,9.4,96,0.00,,,0.00,0.00,VWS V14.01,2013-02-25 08:28:00,
2013-02-25 00:30:00,46.4,45.3,30.21,SSE,158,0.0,3.4,96,0.00,,,0.00,0.00,VWS V14.01,2013-02-25 08:30:00,
2013-02-25 00:33:00,48.6,47.5,30.21,South,180,0.9,5.6,96,0.00,,,0.00,0.00,VWS V14.01,2013-02-25 08:33:00,
2013-02-25 00:38:00,48.4,47.3,30.21,SSE,158,3.1,5.6,96,0.00,,,0.00,0.00,VWS V14.01,2013-02-25 08:38:00,
2013-02-25 00:43:00,48.4,47.3,30.21,SSE,158,0.0,5.6,96,0.00,,,0.00,0.00,VWS V14.01,2013-02-25 08:43:00,
2013-02-25 00:45:00,46.0,45.8,30.21,South,180,1.3,3.8,99,0.00,,,0.00,0.00,VWS V14.01,2013-02-25 08:45:00,
2013-02-25 00:48:00,48.2,47.1,30.21,SSE,158,2.9,4.0,96,0.00,,,0.00,0.00,VWS V14.01,2013-02-25 08:48:00,
2013-02-25 00:53:00,48.0,47.2,30.21,SSE,158,2.9,5.8,97,0.00,,,0.00,0.00,VWS V14.01,2013-02-25 08:53:00,
2013-02-25 00:58:00,48.0,47.2,30.21,ESE,112,0.0,5.8,97,0.00,,,0.00,0.00,VWS V14.01,2013-02-25 08:58:00,
2013-02-25 01:00:00,46.2,46.2,30.18,South,180,0.0,4.9,100,0.00,,,0.00,0.00,VWS V14.01,2013-02-25 09:00:00,
2013-02-25 01:03:00,47.8,47.0,30.21,ESE,112,1.1,3.4,97,0.00,,,0.00,0.00,VWS V14.01,2013-02-25 09:03:00,
2013-02-25 01:08:00,47.7,47.1,30.21,SSW,202,2.7,5.8,98,0.00,,,0.00,0.00,VWS V14.01,2013-02-25 09:08:00,
2013-02-25 01:13:00,47.7,46.8,30.21,SSW,202,1.1,5.8,97,0.00,,,0.00,0.00,VWS V14.01,2013-02-25 09:13:00,
2013-02-25 01:15:00,45.1,44.9,30.18,South,180,0.0,0.0,99,0.00,,,0.00,0.00,VWS V14.01,2013-02-25 09:15:00,
2013-02-25 01:18:00,47.5,46.7,30.21,SSW,202,2.9,3.4,97,0.00,,,0.00,0.00,VWS V14.01,2013-02-25 09:18:00,
2013-02-25 01:23:00,46.9,46.1,30.21,SSE,158,0.0,3.4,97,0.00,,,0.00,0.00,VWS V14.01,2013-02-25 09:23:00,
2013-02-25 01:28:00,46.6,45.8,30.21,SSE,158,1.3,3.4,97,0.00,,,0.00,0.00,VWS V14.01,2013-02-25 09:28:00,
2013-02-25 01:30:00,44.4,44.4,30.18,SSW,202,1.1,2.9,100,0.00,,,0.00,0.00,VWS V14.01,2013-02-25 09:30:00,
2013-02-25 01:33:00,46.2,45.4,30.21,SSE,158,0.0,0.0,97,0.00,,,0.00,0.00,VWS V14.01,2013-02-25 09:33:00,
2013-02-25 01:38:00,46.0,45.5,30.21,SSW,202,1.6,2.2,98,0.00,,,0.00,0.00,VWS V14.01,2013-02-25 09:38:00,
2013-02-25 01:43:00,46.0,45.8,30.21,South,180,2.7,3.8,99,0.00,,,0.00,0.00,VWS V14.01,2013-02-25 09:43:00,
2013-02-25 01:45:00,44.2,44.2,30.18,SSW,202,0.0,3.6,100,0.00,,,0.00,0.00,VWS V14.01,2013-02-25 09:45:00,
2013-02-25 01:48:00,45.9,45.6,30.21,SSW,202,0.0,2.5,99,0.00,,,0.00,0.00,VWS V14.01,2013-02-25 09:48:00,
2013-02-25 01:53:00,46.2,46.2,30.21,SSW,202,3.4,3.8,100,0.00,,,0.00,0.00,VWS V14.01,2013-02-25 09:53:00,
2013-02-25 01:58:00,46.2,46.2,30.18,South,180,2.0,4.9,100,0.00,,,0.00,0.00,VWS V14.01,2013-02-25 09:58:00,
2013-02-25 02:00:00,43.7,43.7,30.18,SSW,202,0.0,1.6,100,0.00,,,0.00,0.00,VWS V14.01,2013-02-25 10:00:00,
2013-02-25 02:03:00,45.7,45.7,30.18,South,180,0.0,0.0,100,0.00,,,0.00,0.00,VWS V14.01,2013-02-25 10:03:00,
2013-02-25 02:08:00,45.3,45.1,30.18,South,180,0.0,0.0,99,0.00,,,0.00,0.00,VWS V14.01,2013-02-25 10:08:00,
2013-02-25 02:13:00,45.1,44.9,30.18,South,180,0.0,0.0,99,0.00,,,0.00,0.00,VWS V14.01,2013-02-25 10:13:00,
2013-02-25 02:15:00,43.5,43.5,30.18,SSW,202,0.0,2.7,100,0.00,,,0.00,0.00,VWS V14.01,2013-02-25 10:15:00,
2013-02-25 02:18:00,45.1,44.9,30.18,South,180,0.0,0.0,99,0.00,,,0.00,0.00,VWS V14.01,2013-02-25 10:18:00,
2013-02-25 02:23:00,44.6,44.3,30.18,South,180,0.0,0.0,99,0.00,,,0.00,0.00,VWS V14.01,2013-02-25 10:23:00,
2013-02-25 02:28:00,44.4,44.4,30.18,SSW,202,2.5,2.9,100,0.00,,,0.00,0.00,VWS V14.01,2013-02-25 10:28:00,
2013-02-25 02:30:00,43.0,43.0,30.18,SSW,202,2.0,2.2,100,0.00,,,0.00,0.00,VWS V14.01,2013-02-25 10:30:00,
2013-02-25 02:33:00,44.1,44.1,30.18,SSW,202,0.0,1.1,100,0.00,,,0.00,0.00,VWS V14.01,2013-02-25 10:33:00,
2013-02-25 02:38:00,44.2,44.2,30.18,SSW,202,2.5,2.5,100,0.00,,,0.00,0.00,VWS V14.01,2013-02-25 10:38:00,
2013-02-25 02:43:00,44.2,44.2,30.18,SSW,202,1.1,3.6,100,0.00,,,0.00,0.00,VWS V14.01,2013-02-25 10:43:00,
2013-02-25 02:45:00,43.0,43.0,30.18,SSW,202,1.3,2.5,100,0.00,,,0.00,0.00,VWS V14.01,2013-02-25 10:45:00,
2013-02-25 02:48:00,44.1,44.1,30.18,SSW,202,0.0,0.0,100,0.00,,,0.00,0.00,VWS V14.01,2013-02-25 10:48:00,
2013-02-25 02:54:00,43.7,43.7,30.18,SSW,202,0.0,0.0,100,0.00,,,0.00,0.00,VWS V14.01,2013-02-25 10:54:00,
2013-02-25 02:59:00,43.7,43.7,30.18,SSW,202,1.1,1.6,100,0.00,,,0.00,0.00,VWS V14.01,2013-02-25 10:59:00,
2013-02-25 03:00:00,42.6,42.6,30.18,SSW,202,0.0,2.7,100,0.00,,,0.00,0.00,VWS V14.01,2013-02-25 11:00:00,
2013-02-25 03:04:00,43.5,43.5,30.18,SSW,202,2.0,2.2,100,0.00,,,0.00,0.00,VWS V14.01,2013-02-25 11:04:00,
2013-02-25 03:09:00,43.5,43.5,30.18,SSW,202,0.0,2.7,100,0.00,,,0.00,0.00,VWS V14.01,2013-02-25 11:09:00,
2013-02-25 03:14:00,43.5,43.5,30.18,SSW,202,0.0,2.7,100,0.00,,,0.00,0.00,VWS V14.01,2013-02-25 11:14:00,
2013-02-25 03:15:00,42.8,42.8,30.18,SSW,202,0.0,2.5,100,0.00,,,0.00,0.00,VWS V14.01,2013-02-25 11:15:00,
2013-02-25 03:19:00,43.3,43.3,30.18,SSW,202,0.0,1.1,100,0.00,,,0.00,0.00,VWS V14.01,2013-02-25 11:19:00,
2013-02-25 03:24:00,43.0,43.0,30.18,SSW,202,1.1,1.6,100,0.00,,,0.00,0.00,VWS V14.01,2013-02-25 11:24:00,
2013-02-25 03:29:00,42.8,42.8,30.18,SSW,202,2.2,2.2,100,0.00,,,0.00,0.00,VWS V14.01,2013-02-25 11:29:00,
2013-02-25 03:30:00,42.8,42.8,30.15,South,180,0.0,2.0,100,0.00,,,0.00,0.00,VWS V14.01,2013-02-25 11:30:00,
2013-02-25 03:34:00,43.0,43.0,30.18,SSW,202,1.6,2.0,100,0.00,,,0.00,0.00,VWS V14.01,2013-02-25 11:34:00,
2013-02-25 03:39:00,43.0,43.0,30.18,SSW,202,0.0,2.0,100,0.00,,,0.00,0.00,VWS V14.01,2013-02-25 11:39:00,
2013-02-25 03:44:00,43.0,43.0,30.18,SSW,202,1.1,2.5,100,0.00,,,0.00,0.00,VWS V14.01,2013-02-25 11:44:00,
2013-02-25 03:45:00,43.0,43.0,30.18,SSW,202,0.0,0.0,100,0.00,,,0.00,0.00,VWS V14.01,2013-02-25 11:45:00,
2013-02-25 03:49:00,42.8,42.8,30.18,SSW,202,0.0,1.3,100,0.00,,,0.00,0.00,VWS V14.01,2013-02-25 11:49:00,
2013-02-25 03:54:00,42.8,42.8,30.18,South,180,1.1,2.5,100,0.00,,,0.00,0.00,VWS V14.01,2013-02-25 11:54:00,
2013-02-25 03:59:00,42.6,42.6,30.18,South,180,0.0,2.7,100,0.00,,,0.00,0.00,VWS V14.01,2013-02-25 11:59:00,
2013-02-25 04:00:00,42.4,42.4,30.15,SSW,202,0.0,0.0,100,0.00,,,0.00,0.00,VWS V14.01,2013-02-25 12:00:00,
2013-02-25 04:04:00,42.8,42.8,30.18,SSW,202,1.1,2.0,100,0.00,,,0.00,0.00,VWS V14.01,2013-02-25 12:04:00,
2013-02-25 04:09:00,42.8,42.8,30.18,SSW,202,1.3,2.5,100,0.00,,,0.00,0.00,VWS V14.01,2013-02-25 12:09:00,
2013-02-25 04:14:00,42.8,42.8,30.18,SSW,202,0.0,2.5,100,0.00,,,0.00,0.00,VWS V14.01,2013-02-25 12:14:00,
2013-02-25 04:15:00,42.4,42.4,30.18,SSW,202,0.0,2.0,100,0.00,,,0.00,0.00,VWS V14.01,2013-02-25 12:15:00,
2013-02-25 04:19:00,42.6,42.6,30.18,South,180,0.0,2.0,100,0.00,,,0.00,0.00,VWS V14.01,2013-02-25 12:19:00,
2013-02-25 04:24:00,43.0,43.0,30.18,SSW,202,0.0,2.0,100,0.00,,,0.00,0.00,VWS V14.01,2013-02-25 12:24:00,
2013-02-25 04:29:00,42.8,42.8,30.15,South,180,0.0,2.0,100,0.00,,,0.00,0.00,VWS V14.01,2013-02-25 12:29:00,
2013-02-25 04:30:00,42.4,42.4,30.18,SSW,202,0.0,0.0,100,0.00,,,0.00,0.00,VWS V14.01,2013-02-25 12:30:00,
2013-02-25 04:34:00,42.8,42.8,30.15,South,180,0.0,0.0,100,0.00,,,0.00,0.00,VWS V14.01,2013-02-25 12:34:00,
2013-02-25 04:39:00,43.2,43.2,30.15,SSW,202,0.0,0.0,100,0.00,,,0.00,0.00,VWS V14.01,2013-02-25 12:39:00,
2013-02-25 04:45:00,43.0,43.0,30.18,SSW,202,0.0,0.0,100,0.00,,,0.00,0.00,VWS V14.01,2013-02-25 12:45:00,
2013-02-25 04:54:00,42.8,42.8,30.18,SSW,202,0.0,0.0,100,0.00,,,0.00,0.00,VWS V14.01,2013-02-25 12:54:00,
2013-02-25 04:59:00,42.4,42.4,30.15,SSW,202,0.0,0.0,100,0.00,,,0.00,0.00,VWS V14.01,2013-02-25 12:59:00,
2013-02-25 05:00:00,44.2,44.2,30.18,WSW,248,0.0,4.3,100,0.00,,,0.00,0.00,VWS V14.01,2013-02-25 13:00:00,
2013-02-25 05:04:00,42.8,42.8,30.15,SSW,202,0.0,2.0,100,0.00,,,0.00,0.00,VWS V14.01,2013-02-25 13:04:00,
2013-02-25 05:10:00,42.6,42.6,30.15,SSW,202,0.0,2.0,100,0.00,,,0.00,0.00,VWS V14.01,2013-02-25 13:10:00,
2013-02-25 05:15:00,42.4,42.4,30.18,SSW,202,0.0,2.0,100,0.00,,,0.00,0.00,VWS V14.01,2013-02-25 13:15:00,
2013-02-25 05:20:00,42.6,42.6,30.18,SSW,202,0.0,0.0,100,0.00,,,0.00,0.00,VWS V14.01,2013-02-25 13:20:00,
2013-02-25 05:25:00,42.6,42.6,30.18,SSW,202,0.0,0.0,100,0.00,,,0.00,0.00,VWS V14.01,2013-02-25 13:25:00,
2013-02-25 05:30:00,42.4,42.4,30.18,SSW,202,0.0,0.0,100,0.00,,,0.00,0.00,VWS V14.01,2013-02-25 13:30:00,
2013-02-25 05:35:00,42.8,42.8,30.18,SSW,202,2.0,2.9,100,0.00,,,0.00,0.00,VWS V14.01,2013-02-25 13:35:00,
2013-02-25 05:40:00,45.3,45.3,30.18,SE,135,6.5,6.5,100,0.00,,,0.00,0.00,VWS V14.01,2013-02-25 13:40:00,
2013-02-25 05:45:00,45.5,45.5,30.15,SSE,158,0.0,0.0,100,0.00,,,0.00,0.00,VWS V14.01,2013-02-25 13:45:00,
2013-02-25 05:50:00,44.6,44.6,30.15,SSE,158,1.6,1.6,100,0.00,,,0.00,0.00,VWS V14.01,2013-02-25 13:50:00,
2013-02-25 05:55:00,44.6,44.6,30.15,North,0,0.0,4.3,100,0.00,,,0.00,0.00,VWS V14.01,2013-02-25 13:55:00,
2013-02-25 06:00:00,44.1,44.1,30.18,WSW,248,0.0,0.0,100,0.00,,,0.00,0.00,VWS V14.01,2013-02-25 14:00:00,
2013-02-25 06:06:00,43.7,43.7,30.18,South,180,0.0,0.0,100,0.00,,,0.00,0.00,VWS V14.01,2013-02-25 14:06:00,
2013-02-25 06:11:00,43.7,43.7,30.18,South,180,0.0,0.0,100,0.00,,,0.00,0.00,VWS V14.01,2013-02-25 14:11:00,
2013-02-25 06:15:00,42.3,42.3,30.21,SSW,202,0.0,0.0,100,0.00,,,0.00,0.00,VWS V14.01,2013-02-25 14:15:00,
2013-02-25 06:16:00,44.1,44.1,30.18,South,180,0.0,1.1,100,0.00,,,0.00,0.00,VWS V14.01,2013-02-25 14:16:00,
2013-02-25 06:21:00,43.9,43.9,30.18,SSW,202,0.0,1.6,100,0.00,,,0.00,0.00,VWS V14.01,2013-02-25 14:21:00,
2013-02-25 06:26:00,43.5,43.5,30.18,SSW,202,0.0,1.6,100,0.00,,,0.00,0.00,VWS V14.01,2013-02-25 14:26:00,
2013-02-25 06:30:00,42.4,42.4,30.21,SSW,202,0.0,1.1,100,0.00,,,0.00,0.00,VWS V14.01,2013-02-25 14:30:00,
2013-02-25 06:31:00,43.3,43.3,30.18,SSW,202,0.0,0.0,100,0.00,,,0.00,0.00,VWS V14.01,2013-02-25 14:31:00,
2013-02-25 06:37:00,43.3,43.3,30.18,SSW,202,0.0,0.0,100,0.00,,,0.00,0.00,VWS V14.01,2013-02-25 14:37:00,
2013-02-25 06:42:00,43.2,43.2,30.18,SSW,202,0.0,0.0,100,0.00,,,0.00,0.00,VWS V14.01,2013-02-25 14:42:00,
2013-02-25 06:45:00,43.3,43.3,30.21,SSW,202,0.0,2.7,100,0.00,,,0.00,0.00,VWS V14.01,2013-02-25 14:45:00,
2013-02-25 06:47:00,43.0,43.0,30.18,SSW,202,0.0,0.0,100,0.00,,,0.00,0.00,VWS V14.01,2013-02-25 14:47:00,
2013-02-25 06:52:00,42.8,42.8,30.18,SSW,202,0.0,0.0,100,0.00,,,0.00,0.00,VWS V14.01,2013-02-25 14:52:00,
2013-02-25 06:57:00,42.8,42.8,30.21,SSW,202,0.0,0.0,100,0.00,,,0.00,0.00,VWS V14.01,2013-02-25 14:57:00,
2013-02-25 07:00:00,44.4,44.4,30.18,SSW,202,0.0,2.5,100,0.00,,,0.00,0.00,VWS V14.01,2013-02-25 15:00:00,
2013-02-25 07:02:00,42.6,42.6,30.21,SSW,202,0.0,0.0,100,0.00,,,0.00,0.00,VWS V14.01,2013-02-25 15:02:00,
2013-02-25 07:07:00,42.4,42.4,30.21,SSW,202,0.0,0.0,100,0.00,,,0.00,0.00,VWS V14.01,2013-02-25 15:07:00,
2013-02-25 07:12:00,42.3,42.3,30.21,SSW,202,0.0,0.0,100,0.00,,,0.00,0.00,VWS V14.01,2013-02-25 15:12:00,
2013-02-25 07:15:00,45.3,45.3,30.21,SSW,202,0.0,0.0,100,0.00,,,0.00,0.00,VWS V14.01,2013-02-25 15:15:00,
2013-02-25 07:17:00,42.1,42.1,30.21,SSW,202,0.0,0.0,100,0.00,,,0.00,0.00,VWS V14.01,2013-02-25 15:17:00,
2013-02-25 07:22:00,42.3,42.3,30.21,SSW,202,0.0,0.0,100,0.00,,,0.00,0.00,VWS V14.01,2013-02-25 15:22:00,
2013-02-25 07:27:00,42.3,42.3,30.21,SSW,202,1.1,1.1,100,0.00,,,0.00,0.00,VWS V14.01,2013-02-25 15:27:00,
2013-02-25 07:30:00,46.2,46.2,30.18,SSW,202,0.0,0.0,100,0.00,,,0.00,0.00,VWS V14.01,2013-02-25 15:30:00,
2013-02-25 07:32:00,42.6,42.6,30.21,SSW,202,0.0,0.0,100,0.00,,,0.00,0.00,VWS V14.01,2013-02-25 15:32:00,
2013-02-25 07:37:00,42.8,42.8,30.21,SSW,202,0.0,2.7,100,0.00,,,0.00,0.00,VWS V14.01,2013-02-25 15:37:00,
2013-02-25 07:42:00,43.3,43.3,30.21,SSW,202,0.0,2.7,100,0.00,,,0.00,0.00,VWS V14.01,2013-02-25 15:42:00,
2013-02-25 07:45:00,48.7,48.7,30.18,SSE,158,0.0,2.9,100,0.00,,,0.00,0.00,VWS V14.01,2013-02-25 15:45:00,
2013-02-25 07:47:00,43.5,43.5,30.21,SSW,202,0.0,0.0,100,0.00,,,0.00,0.00,VWS V14.01,2013-02-25 15:47:00,
2013-02-25 07:52:00,44.1,44.1,30.21,SSW,202,2.2,2.5,100,0.00,,,0.00,0.00,VWS V14.01,2013-02-25 15:52:00,
2013-02-25 07:57:00,44.2,44.2,30.18,SSW,202,0.0,2.5,100,0.00,,,0.00,0.00,VWS V14.01,2013-02-25 15:57:00,
2013-02-25 08:00:00,50.0,48.6,30.21,SSE,158,0.0,1.6,95,0.00,,,0.00,0.00,VWS V14.01,2013-02-25 16:00:00,
2013-02-25 08:02:00,44.8,44.8,30.18,SSW,202,0.0,0.0,100,0.00,,,0.00,0.00,VWS V14.01,2013-02-25 16:02:00,
2013-02-25 08:07:00,44.8,44.8,30.18,SSW,202,0.0,0.0,100,0.00,,,0.00,0.00,VWS V14.01,2013-02-25 16:07:00,
2013-02-25 08:12:00,45.3,45.3,30.21,SSW,202,0.0,0.0,100,0.00,,,0.00,0.00,VWS V14.01,2013-02-25 16:12:00,
2013-02-25 08:15:00,51.6,50.5,30.18,NNE,22,0.0,2.7,96,0.00,,,0.00,0.00,VWS V14.01,2013-02-25 16:15:00,
2013-02-25 08:17:00,45.5,45.5,30.21,SSW,202,0.0,0.0,100,0.00,,,0.00,0.00,VWS V14.01,2013-02-25 16:17:00,
2013-02-25 08:22:00,45.9,45.9,30.21,SSW,202,0.0,0.0,100,0.00,,,0.00,0.00,VWS V14.01,2013-02-25 16:22:00,
2013-02-25 08:27:00,46.2,46.2,30.18,SSW,202,0.0,0.0,100,0.00,,,0.00,0.00,VWS V14.01,2013-02-25 16:27:00,
2013-02-25 08:30:00,52.5,50.6,30.18,North,0,2.7,4.3,93,0.00,,,0.00,0.00,VWS V14.01,2013-02-25 16:30:00,
2013-02-25 08:32:00,46.6,46.6,30.18,SSW,202,0.0,0.0,100,0.00,,,0.00,0.00,VWS V14.01,2013-02-25 16:32:00,
2013-02-25 08:37:00,47.5,47.5,30.18,SSW,202,0.0,0.0,100,0.00,,,0.00,0.00,VWS V14.01,2013-02-25 16:37:00,
2013-02-25 08:42:00,48.6,48.6,30.18,East,90,2.2,2.2,100,0.00,,,0.00,0.00,VWS V14.01,2013-02-25 16:42:00,
2013-02-25 08:45:00,53.4,50.0,30.18,East,90,2.7,5.4,88,0.00,,,0.00,0.00,VWS V14.01,2013-02-25 16:45:00,
2013-02-25 08:47:00,49.1,49.1,30.18,SSE,158,0.0,0.0,100,0.00,,,0.00,0.00,VWS V14.01,2013-02-25 16:47:00,
2013-02-25 08:52:00,49.5,48.9,30.18,SSE,158,0.0,1.6,98,0.00,,,0.00,0.00,VWS V14.01,2013-02-25 16:52:00,
2013-02-25 08:57:00,49.8,48.7,30.21,SSE,158,0.0,1.6,96,0.00,,,0.00,0.00,VWS V14.01,2013-02-25 16:57:00,
2013-02-25 09:00:00,54.3,50.2,30.18,NNW,338,0.0,4.0,86,0.00,,,0.00,0.00,VWS V14.01,2013-02-25 17:00:00,
2013-02-25 09:02:00,50.2,48.8,30.21,SSE,158,0.0,2.0,95,0.00,,,0.00,0.00,VWS V14.01,2013-02-25 17:02:00,
2013-02-25 09:07:00,50.4,49.0,30.21,SSE,158,0.0,2.0,95,0.00,,,0.00,0.00,VWS V14.01,2013-02-25 17:07:00,
2013-02-25 09:12:00,51.3,50.2,30.18,NNE,22,2.2,2.7,96,0.00,,,0.00,0.00,VWS V14.01,2013-02-25 17:12:00,
2013-02-25 09:15:00,53.8,49.4,30.21,NNE,22,0.0,5.6,85,0.00,,,0.00,0.00,VWS V14.01,2013-02-25 17:15:00,
2013-02-25 09:17:00,52.0,50.9,30.18,North,0,1.3,4.0,96,0.00,,,0.00,0.00,VWS V14.01,2013-02-25 17:17:00,
2013-02-25 09:22:00,51.6,49.7,30.18,East,90,0.0,4.0,93,0.00,,,0.00,0.00,VWS V14.01,2013-02-25 17:22:00,
2013-02-25 09:27:00,52.2,50.2,30.18,NE,45,2.5,4.3,93,0.00,,,0.00,0.00,VWS V14.01,2013-02-25 17:27:00,
2013-02-25 09:30:00,56.1,48.3,30.21,NE,45,3.4,3.8,75,0.00,,,0.00,0.00,VWS V14.01,2013-02-25 17:30:00,
2013-02-25 09:33:00,52.9,50.9,30.18,East,90,1.1,4.7,93,0.00,,,0.00,0.00,VWS V14.01,2013-02-25 17:33:00,
2013-02-25 09:38:00,53.2,51.0,30.18,NE,45,3.1,5.4,92,0.00,,,0.00,0.00,VWS V14.01,2013-02-25 17:38:00,
2013-02-25 09:43:00,53.6,50.4,30.18,NNE,22,0.9,5.4,89,0.00,,,0.00,0.00,VWS V14.01,2013-02-25 17:43:00,
2013-02-25 09:45:00,56.3,48.8,30.21,NE,45,1.1,6.0,76,0.00,,,0.00,0.00,VWS V14.01,2013-02-25 17:45:00,
2013-02-25 09:48:00,54.1,51.0,30.18,NE,45,2.7,2.7,89,0.00,,,0.00,0.00,VWS V14.01,2013-02-25 17:48:00,
2013-02-25 09:53:00,54.5,50.7,30.18,NE,45,3.1,4.0,87,0.00,,,0.00,0.00,VWS V14.01,2013-02-25 17:53:00,
2013-02-25 09:58:00,54.0,49.9,30.18,North,0,0.0,4.0,86,0.00,,,0.00,0.00,VWS V14.01,2013-02-25 17:58:00,
2013-02-25 10:00:00,56.7,44.6,30.18,SE,135,4.9,4.9,64,0.00,,,0.00,0.00,VWS V14.01,2013-02-25 18:00:00,
2013-02-25 10:03:00,54.3,49.9,30.18,East,90,1.3,4.9,85,0.00,,,0.00,0.00,VWS V14.01,2013-02-25 18:03:00,
2013-02-25 10:08:00,53.6,49.2,30.18,NNE,22,0.0,5.6,85,0.00,,,0.00,0.00,VWS V14.01,2013-02-25 18:08:00,
2013-02-25 10:13:00,53.8,49.4,30.21,NNE,22,0.0,5.6,85,0.00,,,0.00,0.00,VWS V14.01,2013-02-25 18:13:00,
2013-02-25 10:15:00,56.8,44.8,30.18,SSE,158,2.0,7.8,64,0.00,,,0.00,0.00,VWS V14.01,2013-02-25 18:15:00,
2013-02-25 10:18:00,53.8,47.4,30.21,NNE,22,0.0,0.0,79,0.00,,,0.00,0.00,VWS V14.01,2013-02-25 18:18:00,
2013-02-25 10:23:00,54.9,47.5,30.21,SE,135,3.8,3.8,76,0.00,,,0.00,0.00,VWS V14.01,2013-02-25 18:23:00,
2013-02-25 10:28:00,55.6,46.3,30.21,ENE,68,2.5,3.8,71,0.00,,,0.00,0.00,VWS V14.01,2013-02-25 18:28:00,
2013-02-25 10:30:00,59.7,46.7,30.18,WSW,248,2.5,6.5,62,0.00,,,0.00,0.00,VWS V14.01,2013-02-25 18:30:00,
2013-02-25 10:33:00,55.9,48.8,30.21,NE,45,2.5,6.0,77,0.00,,,0.00,0.00,VWS V14.01,2013-02-25 18:33:00,
2013-02-25 10:38:00,56.3,49.5,30.21,North,0,1.6,6.0,78,0.00,,,0.00,0.00,VWS V14.01,2013-02-25 18:38:00,
2013-02-25 10:43:00,56.3,48.8,30.21,NE,45,1.1,6.0,76,0.00,,,0.00,0.00,VWS V14.01,2013-02-25 18:43:00,
2013-02-25 10:45:00,59.9,46.0,30.21,North,0,3.4,4.9,60,0.00,,,0.00,0.00,VWS V14.01,2013-02-25 18:45:00,
2013-02-25 10:48:00,56.8,49.0,30.21,SSW,202,0.0,2.7,75,0.00,,,0.00,0.00,VWS V14.01,2013-02-25 18:48:00,
2013-02-25 10:53:00,56.7,45.8,30.21,SE,135,4.9,4.9,67,0.00,,,0.00,0.00,VWS V14.01,2013-02-25 18:53:00,
2013-02-25 10:58:00,56.7,44.6,30.18,SE,135,4.9,4.9,64,0.00,,,0.00,0.00,VWS V14.01,2013-02-25 18:58:00,
2013-02-25 11:00:00,59.5,44.8,30.18,NE,45,3.1,7.8,58,0.00,,,0.00,0.00,VWS V14.01,2013-02-25 19:00:00,
2013-02-25 11:03:00,56.5,44.5,30.18,SE,135,4.9,4.9,64,0.00,,,0.00,0.00,VWS V14.01,2013-02-25 19:03:00,
2013-02-25 11:08:00,56.5,44.0,30.18,SSW,202,7.4,7.4,63,0.00,,,0.00,0.00,VWS V14.01,2013-02-25 19:08:00,
2013-02-25 11:13:00,56.8,44.4,30.18,SSE,158,3.4,7.8,63,0.00,,,0.00,0.00,VWS V14.01,2013-02-25 19:13:00,
2013-02-25 11:15:00,59.0,43.3,30.18,North,0,4.0,7.8,56,0.00,,,0.00,0.00,VWS V14.01,2013-02-25 19:15:00,
2013-02-25 11:18:00,57.6,44.2,30.18,SSE,158,3.1,6.5,61,0.00,,,0.00,0.00,VWS V14.01,2013-02-25 19:18:00,
2013-02-25 11:23:00,58.1,44.7,30.18,SE,135,1.3,6.5,61,0.00,,,0.00,0.00,VWS V14.01,2013-02-25 19:23:00,
2013-02-25 11:28:00,59.0,45.6,30.18,WSW,248,0.0,6.5,61,0.00,,,0.00,0.00,VWS V14.01,2013-02-25 19:28:00,
2013-02-25 11:30:00,60.1,43.4,30.18,NNE,22,3.1,7.6,54,0.00,,,0.00,0.00,VWS V14.01,2013-02-25 19:30:00,
2013-02-25 11:33:00,58.8,44.1,30.18,South,180,3.1,3.8,58,0.00,,,0.00,0.00,VWS V14.01,2013-02-25 19:33:00,
2013-02-25 11:38:00,58.8,44.5,30.18,East,90,2.7,4.3,59,0.00,,,0.00,0.00,VWS V14.01,2013-02-25 19:38:00,
2013-02-25 11:43:00,59.7,45.8,30.21,East,90,2.9,4.9,60,0.00,,,0.00,0.00,VWS V14.01,2013-02-25 19:43:00,
2013-02-25 11:45:00,60.4,44.7,30.15,SSE,158,2.0,8.7,56,0.00,,,0.00,0.00,VWS V14.01,2013-02-25 19:45:00,
2013-02-25 11:48:00,59.0,43.8,30.21,NNE,22,5.8,7.8,57,0.00,,,0.00,0.00,VWS V14.01,2013-02-25 19:48:00,
2013-02-25 11:53:00,58.5,43.8,30.21,ENE,68,3.4,7.8,58,0.00,,,0.00,0.00,VWS V14.01,2013-02-25 19:53:00,
2013-02-25 11:58:00,59.4,45.0,30.18,NNE,22,6.3,7.8,59,0.00,,,0.00,0.00,VWS V14.01,2013-02-25 19:58:00,
2013-02-25 12:00:00,59.9,44.7,30.15,NNW,338,5.8,6.5,57,0.00,,,0.00,0.00,VWS V14.01,2013-02-25 20:00:00,
2013-02-25 12:03:00,59.2,43.5,30.18,NE,45,5.6,7.8,56,0.00,,,0.00,0.00,VWS V14.01,2013-02-25 20:03:00,
2013-02-25 12:08:00,58.8,43.2,30.18,NE,45,3.8,7.8,56,0.00,,,0.00,0.00,VWS V14.01,2013-02-25 20:08:00,
2013-02-25 12:13:00,58.8,43.2,30.18,NNE,22,3.8,7.8,56,0.00,,,0.00,0.00,VWS V14.01,2013-02-25 20:13:00,
2013-02-25 12:15:00,61.0,46.6,30.15,North,0,2.5,6.5,59,0.00,,,0.00,0.00,VWS V14.01,2013-02-25 20:15:00,
2013-02-25 12:18:00,59.2,43.0,30.18,NNW,338,0.0,4.7,55,0.00,,,0.00,0.00,VWS V14.01,2013-02-25 20:18:00,
2013-02-25 12:23:00,59.9,43.7,30.18,SSW,202,1.6,4.7,55,0.00,,,0.00,0.00,VWS V14.01,2013-02-25 20:23:00,
2013-02-25 12:28:00,60.3,43.6,30.18,NNE,22,5.8,7.6,54,0.00,,,0.00,0.00,VWS V14.01,2013-02-25 20:28:00,
2013-02-25 12:30:00,61.0,46.1,30.18,NE,45,3.4,6.0,58,0.00,,,0.00,0.00,VWS V14.01,2013-02-25 20:30:00,
2013-02-25 12:33:00,60.1,43.4,30.18,NE,45,6.0,6.0,54,0.00,,,0.00,0.00,VWS V14.01,2013-02-25 20:33:00,
2013-02-25 12:38:00,59.7,43.5,30.18,East,90,3.1,8.7,55,0.00,,,0.00,0.00,VWS V14.01,2013-02-25 20:38:00,
2013-02-25 12:43:00,60.3,44.0,30.15,NE,45,0.9,8.7,55,0.00,,,0.00,0.00,VWS V14.01,2013-02-25 20:43:00,
2013-02-25 12:45:00,60.4,46.1,30.15,NNW,338,3.1,9.0,59,0.00,,,0.00,0.00,VWS V14.01,2013-02-25 20:45:00,
2013-02-25 12:48:00,61.0,44.2,30.15,SSE,158,4.0,4.0,54,0.00,,,0.00,0.00,VWS V14.01,2013-02-25 20:48:00,
2013-02-25 12:53:00,60.8,44.5,30.15,NE,45,6.5,6.5,55,0.00,,,0.00,0.00,VWS V14.01,2013-02-25 20:53:00,
2013-02-25 12:58:00,60.1,44.3,30.15,NNW,338,2.2,6.5,56,0.00,,,0.00,0.00,VWS V14.01,2013-02-25 20:58:00,
2013-02-25 13:00:00,60.6,45.3,30.15,NNE,22,6.3,6.5,57,0.00,,,0.00,0.00,VWS V14.01,2013-02-25 21:00:00,
2013-02-25 13:03:00,60.1,45.3,30.15,NE,45,6.3,6.3,58,0.00,,,0.00,0.00,VWS V14.01,2013-02-25 21:03:00,
2013-02-25 13:08:00,60.8,45.5,30.15,NE,45,3.6,6.3,57,0.00,,,0.00,0.00,VWS V14.01,2013-02-25 21:08:00,
2013-02-25 13:13:00,60.8,46.0,30.15,North,0,2.7,6.5,58,0.00,,,0.00,0.00,VWS V14.01,2013-02-25 21:13:00,
2013-02-25 13:15:00,60.6,44.8,30.15,NW,315,1.1,6.5,56,0.00,,,0.00,0.00,VWS V14.01,2013-02-25 21:15:00,
2013-02-25 13:18:00,61.0,45.2,30.15,SSE,158,0.0,5.4,56,0.00,,,0.00,0.00,VWS V14.01,2013-02-25 21:18:00,
2013-02-25 13:23:00,61.5,46.6,30.15,SSE,158,0.9,5.4,58,0.00,,,0.00,0.00,VWS V14.01,2013-02-25 21:23:00,
2013-02-25 13:29:00,61.2,45.8,30.18,North,0,2.5,6.0,57,0.00,,,0.00,0.00,VWS V14.01,2013-02-25 21:29:00,
2013-02-25 13:30:00,62.2,45.9,30.15,NNE,22,3.4,5.6,55,0.00,,,0.00,0.00,VWS V14.01,2013-02-25 21:30:00,
2013-02-25 13:34:00,60.6,46.7,30.18,NNW,338,3.8,9.0,60,0.00,,,0.00,0.00,VWS V14.01,2013-02-25 21:34:00,
2013-02-25 13:39:00,60.1,45.7,30.18,NE,45,1.6,9.0,59,0.00,,,0.00,0.00,VWS V14.01,2013-02-25 21:39:00,
2013-02-25 13:44:00,60.4,46.1,30.15,NNE,22,3.4,9.0,59,0.00,,,0.00,0.00,VWS V14.01,2013-02-25 21:44:00,
2013-02-25 13:45:00,62.8,45.9,30.15,East,90,2.5,5.4,54,0.00,,,0.00,0.00,VWS V14.01,2013-02-25 21:45:00,
2013-02-25 13:49:00,60.3,46.3,30.15,NNE,22,2.2,6.3,60,0.00,,,0.00,0.00,VWS V14.01,2013-02-25 21:49:00,
2013-02-25 13:54:00,60.4,46.1,30.15,NNE,22,4.0,6.5,59,0.00,,,0.00,0.00,VWS V14.01,2013-02-25 21:54:00,
2013-02-25 13:59:00,60.8,45.5,30.15,NNE,22,3.6,6.5,57,0.00,,,0.00,0.00,VWS V14.01,2013-02-25 21:59:00,
2013-02-25 14:00:00,63.0,45.6,30.15,NE,45,2.7,4.7,53,0.00,,,0.00,0.00,VWS V14.01,2013-02-25 22:00:00,
2013-02-25 14:04:00,61.0,45.7,30.15,East,90,2.2,6.3,57,0.00,,,0.00,0.00,VWS V14.01,2013-02-25 22:04:00,
2013-02-25 14:09:00,60.6,44.8,30.15,North,0,2.9,6.5,56,0.00,,,0.00,0.00,VWS V14.01,2013-02-25 22:09:00,
2013-02-25 14:14:00,60.6,44.8,30.15,North,0,4.5,6.5,56,0.00,,,0.00,0.00,VWS V14.01,2013-02-25 22:14:00,
2013-02-25 14:15:00,63.1,46.7,30.15,SE,135,0.0,4.0,55,0.00,,,0.00,0.00,VWS V14.01,2013-02-25 22:15:00,
2013-02-25 14:19:00,61.3,45.5,30.15,NE,45,2.9,3.8,56,0.00,,,0.00,0.00,VWS V14.01,2013-02-25 22:19:00,
2013-02-25 14:24:00,61.5,45.7,30.15,NE,45,3.4,4.7,56,0.00,,,0.00,0.00,VWS V14.01,2013-02-25 22:24:00,
2013-02-25 14:29:00,62.2,45.9,30.15,North,0,5.6,5.6,55,0.00,,,0.00,0.00,VWS V14.01,2013-02-25 22:29:00,
2013-02-25 14:30:00,62.2,46.4,30.15,WSW,248,4.0,8.1,56,0.00,,,0.00,0.00,VWS V14.01,2013-02-25 22:30:00,
2013-02-25 14:34:00,62.2,45.9,30.15,NNE,22,0.0,5.4,55,0.00,,,0.00,0.00,VWS V14.01,2013-02-25 22:34:00,
2013-02-25 14:39:00,62.4,45.6,30.15,NE,45,5.4,5.4,54,0.00,,,0.00,0.00,VWS V14.01,2013-02-25 22:39:00,
2013-02-25 14:44:00,62.8,45.9,30.15,NNE,22,3.1,5.4,54,0.00,,,0.00,0.00,VWS V14.01,2013-02-25 22:44:00,
2013-02-25 14:45:00,60.1,46.2,30.15,SSW,202,3.1,5.6,60,0.00,,,0.00,0.00,VWS V14.01,2013-02-25 22:45:00,
2013-02-25 14:49:00,63.0,45.6,30.15,NNE,22,0.0,3.6,53,0.00,,,0.00,0.00,VWS V14.01,2013-02-25 22:49:00,
2013-02-25 14:54:00,63.1,46.2,30.15,NNW,338,2.9,4.0,54,0.00,,,0.00,0.00,VWS V14.01,2013-02-25 22:54:00,
2013-02-25 14:59:00,63.0,45.6,30.15,SW,225,0.0,4.7,53,0.00,,,0.00,0.00,VWS V14.01,2013-02-25 22:59:00,
2013-02-25 15:00:00,58.8,46.3,30.12,SSW,202,3.1,6.5,63,0.00,,,0.00,0.00,VWS V14.01,2013-02-25 23:00:00,
2013-02-25 15:04:00,62.6,45.2,30.15,ENE,68,2.5,4.0,53,0.00,,,0.00,0.00,VWS V14.01,2013-02-25 23:04:00,
2013-02-25 15:09:00,62.8,45.9,30.15,ESE,112,2.2,4.0,54,0.00,,,0.00,0.00,VWS V14.01,2013-02-25 23:09:00,
2013-02-25 15:14:00,63.0,46.6,30.15,SE,135,0.0,4.0,55,0.00,,,0.00,0.00,VWS V14.01,2013-02-25 23:14:00,
2013-02-25 15:15:00,58.6,45.7,30.12,South,180,2.7,6.5,62,0.00,,,0.00,0.00,VWS V14.01,2013-02-25 23:15:00,
2013-02-25 15:19:00,63.5,47.5,30.15,SSW,202,0.0,2.5,56,0.00,,,0.00,0.00,VWS V14.01,2013-02-25 23:19:00,
2013-02-25 15:24:00,62.4,47.0,30.15,WSW,248,2.9,8.1,57,0.00,,,0.00,0.00,VWS V14.01,2013-02-25 23:24:00,
2013-02-25 15:29:00,62.4,47.0,30.15,SW,225,2.0,8.1,57,0.00,,,0.00,0.00,VWS V14.01,2013-02-25 23:29:00,
2013-02-25 15:30:00,58.1,46.4,30.12,SSW,202,5.8,5.8,65,0.00,,,0.00,0.00,VWS V14.01,2013-02-25 23:30:00,
2013-02-25 15:34:00,61.9,46.5,30.15,South,180,3.6,4.0,57,0.00,,,0.00,0.00,VWS V14.01,2013-02-25 23:34:00,
2013-02-25 15:39:00,61.0,46.6,30.15,SSE,158,3.1,4.7,59,0.00,,,0.00,0.00,VWS V14.01,2013-02-25 23:39:00,
2013-02-25 15:44:00,60.3,46.3,30.15,WSW,248,5.4,5.6,60,0.00,,,0.00,0.00,VWS V14.01,2013-02-25 23:44:00,
2013-02-25 15:45:00,57.6,47.1,30.12,South,180,0.0,5.8,68,0.00,,,0.00,0.00,VWS V14.01,2013-02-25 23:45:00,
2013-02-25 15:49:00,59.4,46.3,30.15,SW,225,5.4,6.5,62,0.00,,,0.00,0.00,VWS V14.01,2013-02-25 23:49:00,
2013-02-25 15:54:00,59.2,46.2,30.15,SSW,202,2.5,6.5,62,0.00,,,0.00,0.00,VWS V14.01,2013-02-25 23:54:00,
2013-02-25 15:59:00,58.8,46.3,30.12,SSW,202,3.1,6.5,63,0.00,,,0.00,0.00,VWS V14.01,2013-02-25 23:59:00,
2013-02-25 16:00:00,56.1,48.0,30.12,SSW,202,0.0,3.4,74,0.00,,,0.00,0.00,VWS V14.01,2013-02-26 00:00:00,
2013-02-25 16:04:00,58.6,46.1,30.12,South,180,2.9,5.8,63,0.00,,,0.00,0.00,VWS V14.01,2013-02-26 00:04:00,
2013-02-25 16:09:00,58.6,45.7,30.12,SSW,202,4.3,6.5,62,0.00,,,0.00,0.00,VWS V14.01,2013-02-26 00:09:00,
2013-02-25 16:14:00,58.6,45.7,30.12,South,180,2.7,6.5,62,0.00,,,0.00,0.00,VWS V14.01,2013-02-26 00:14:00,
2013-02-25 16:15:00,55.9,48.1,30.12,SSW,202,3.1,3.8,75,0.00,,,0.00,0.00,VWS V14.01,2013-02-26 00:15:00,
2013-02-25 16:19:00,58.5,45.9,30.12,South,180,2.5,3.8,63,0.00,,,0.00,0.00,VWS V14.01,2013-02-26 00:19:00,
2013-02-25 16:24:00,58.3,46.6,30.12,SW,225,1.6,3.8,65,0.00,,,0.00,0.00,VWS V14.01,2013-02-26 00:24:00,
2013-02-25 16:29:00,58.1,46.4,30.12,SW,225,2.9,4.0,65,0.00,,,0.00,0.00,VWS V14.01,2013-02-26 00:29:00,
2013-02-25 16:30:00,55.9,48.1,30.12,South,180,3.8,4.3,75,0.00,,,0.00,0.00,VWS V14.01,2013-02-26 00:30:00,
2013-02-25 16:34:00,58.1,46.4,30.12,SSW,202,2.9,5.8,65,0.00,,,0.00,0.00,VWS V14.01,2013-02-26 00:34:00,
2013-02-25 16:39:00,57.7,46.9,30.12,SSE,158,0.0,5.8,67,0.00,,,0.00,0.00,VWS V14.01,2013-02-26 00:39:00,
2013-02-25 16:44:00,57.6,47.1,30.12,South,180,0.0,5.8,68,0.00,,,0.00,0.00,VWS V14.01,2013-02-26 00:44:00,
2013-02-25 16:45:00,55.0,48.0,30.12,South,180,3.1,5.8,77,0.00,,,0.00,0.00,VWS V14.01,2013-02-26 00:45:00,
2013-02-25 16:49:00,57.0,47.3,30.12,SSE,158,0.0,3.4,70,0.00,,,0.00,0.00,VWS V14.01,2013-02-26 00:49:00,
2013-02-25 16:54:00,56.3,47.4,30.12,SSW,202,0.9,3.4,72,0.00,,,0.00,0.00,VWS V14.01,2013-02-26 00:54:00,
2013-02-25 17:00:00,56.1,48.0,30.12,SSW,202,0.0,3.4,74,0.00,,,0.00,0.00,VWS V14.01,2013-02-26 01:00:00,
2013-02-25 17:05:00,55.9,47.8,30.12,SSE,158,1.3,3.8,74,0.00,,,0.00,0.00,VWS V14.01,2013-02-26 01:05:00,
2013-02-25 17:10:00,55.9,47.8,30.12,SSE,158,0.0,3.8,74,0.00,,,0.00,0.00,VWS V14.01,2013-02-26 01:10:00,
2013-02-25 17:15:00,55.9,48.1,30.12,SSW,202,3.1,3.8,75,0.00,,,0.00,0.00,VWS V14.01,2013-02-26 01:15:00,
2013-02-25 17:20:00,55.9,48.1,30.12,SSW,202,3.1,3.4,75,0.00,,,0.00,0.00,VWS V14.01,2013-02-26 01:20:00,
2013-02-25 17:25:00,55.8,48.3,30.12,SSW,202,1.6,3.4,76,0.00,,,0.00,0.00,VWS V14.01,2013-02-26 01:25:00,
2013-02-25 17:30:00,55.9,48.1,30.12,South,180,3.8,3.8,75,0.00,,,0.00,0.00,VWS V14.01,2013-02-26 01:30:00,
2013-02-25 17:35:00,55.9,48.1,30.12,SSW,202,1.6,4.7,75,0.00,,,0.00,0.00,VWS V14.01,2013-02-26 01:35:00,
2013-02-25 17:40:00,55.4,48.0,30.12,SSW,202,2.7,4.7,76,0.00,,,0.00,0.00,VWS V14.01,2013-02-26 01:40:00,
2013-02-25 17:45:00,55.0,48.0,30.12,SSE,158,4.3,4.3,77,0.00,,,0.00,0.00,VWS V14.01,2013-02-26 01:45:00,
2013-02-25 17:50:00,54.9,47.8,30.12,SSW,202,2.9,7.4,77,0.00,,,0.00,0.00,VWS V14.01,2013-02-26 01:50:00,
2013-02-25 17:55:00,54.5,47.5,30.12,WSW,248,3.8,7.4,77,0.00,,,0.00,0.00,VWS V14.01,2013-02-26 01:55:00,
2013-02-25 18:00:00,54.9,47.5,30.12,South,180,7.8,7.8,76,0.00,,,0.00,0.00,VWS V14.01,2013-02-26 02:00:00,
2013-02-25 18:05:00,54.5,47.1,30.12,South,180,3.6,9.6,76,0.00,,,0.00,0.00,VWS V14.01,2013-02-26 02:05:00,
2013-02-25 18:10:00,54.0,46.9,30.12,SSE,158,5.6,9.6,77,0.00,,,0.00,0.00,VWS V14.01,2013-02-26 02:10:00,
2013-02-25 18:15:00,54.1,46.8,30.12,South,180,6.5,6.5,76,0.00,,,0.00,0.00,VWS V14.01,2013-02-26 02:15:00,
2013-02-25 18:20:00,54.0,46.6,30.12,SSW,202,3.8,8.1,76,0.00,,,0.00,0.00,VWS V14.01,2013-02-26 02:20:00,
2013-02-25 18:25:00,54.0,46.2,30.12,South,180,6.3,8.7,75,0.00,,,0.00,0.00,VWS V14.01,2013-02-26 02:25:00,
2013-02-25 18:30:00,54.0,46.2,30.12,SSW,202,8.5,10.7,75,0.00,,,0.00,0.00,VWS V14.01,2013-02-26 02:30:00,
2013-02-25 18:35:00,53.6,45.5,30.12,SSE,158,6.3,10.7,74,0.00,,,0.00,0.00,VWS V14.01,2013-02-26 02:35:00,
2013-02-25 18:40:00,53.4,45.3,30.12,South,180,3.6,10.7,74,0.00,,,0.00,0.00,VWS V14.01,2013-02-26 02:40:00,
2013-02-25 18:45:00,53.6,44.8,30.15,SSW,202,1.3,2.0,72,0.00,,,0.00,0.00,VWS V14.01,2013-02-26 02:45:00,
2013-02-25 18:50:00,53.1,45.0,30.15,SW,225,0.0,2.9,74,0.00,,,0.00,0.00,VWS V14.01,2013-02-26 02:50:00,
2013-02-25 18:55:00,52.3,44.7,30.15,SW,225,0.0,2.9,75,0.00,,,0.00,0.00,VWS V14.01,2013-02-26 02:55:00,
2013-02-25 19:00:00,52.2,44.5,30.15,South,180,0.0,0.0,75,0.00,,,0.00,0.00,VWS V14.01,2013-02-26 03:00:00,
2013-02-25 19:05:00,51.8,44.5,30.15,South,180,1.6,2.7,76,0.00,,,0.00,0.00,VWS V14.01,2013-02-26 03:05:00,
2013-02-25 19:10:00,51.4,44.5,30.15,South,180,2.2,2.7,77,0.00,,,0.00,0.00,VWS V14.01,2013-02-26 03:10:00,
2013-02-25 19:15:00,51.8,43.8,30.18,SSW,202,3.1,3.1,74,0.00,,,0.00,0.00,VWS V14.01,2013-02-26 03:15:00,
2013-02-25 19:20:00,51.8,43.8,30.18,SSW,202,2.7,3.8,74,0.00,,,0.00,0.00,VWS V14.01,2013-02-26 03:20:00,
2013-02-25 19:25:00,51.4,44.1,30.18,SSW,202,2.0,3.8,76,0.00,,,0.00,0.00,VWS V14.01,2013-02-26 03:25:00,
2013-02-25 19:30:00,51.3,43.6,30.18,SSW,202,0.0,2.2,75,0.00,,,0.00,0.00,VWS V14.01,2013-02-26 03:30:00,
2013-02-25 19:35:00,50.9,43.6,30.18,SSW,202,2.0,2.2,76,0.00,,,0.00,0.00,VWS V14.01,2013-02-26 03:35:00,
2013-02-25 19:40:00,50.5,43.6,30.18,SSW,202,2.0,2.5,77,0.00,,,0.00,0.00,VWS V14.01,2013-02-26 03:40:00,
2013-02-25 19:45:00,50.2,43.3,30.18,SSW,202,0.0,0.0,77,0.00,,,0.00,0.00,VWS V14.01,2013-02-26 03:45:00,
2013-02-25 19:50:00,50.0,43.4,30.18,SSW,202,0.0,0.0,78,0.00,,,0.00,0.00,VWS V14.01,2013-02-26 03:50:00,
2013-02-25 19:55:00,49.6,43.7,30.18,SSW,202,0.0,0.0,80,0.00,,,0.00,0.00,VWS V14.01,2013-02-26 03:55:00,
2013-02-25 20:00:00,49.5,43.9,30.18,SSW,202,2.5,2.5,81,0.00,,,0.00,0.00,VWS V14.01,2013-02-26 04:00:00,
2013-02-25 20:05:00,49.6,44.4,30.18,SSW,202,2.7,3.1,82,0.00,,,0.00,0.00,VWS V14.01,2013-02-26 04:05:00,
2013-02-25 20:11:00,49.8,44.2,30.18,SSW,202,0.9,3.1,81,0.00,,,0.00,0.00,VWS V14.01,2013-02-26 04:11:00,
2013-02-25 20:15:00,47.8,43.9,30.18,SSW,202,0.0,2.0,86,0.00,,,0.00,0.00,VWS V14.01,2013-02-26 04:15:00,
2013-02-25 20:16:00,49.5,44.2,30.18,SSW,202,0.0,0.0,82,0.00,,,0.00,0.00,VWS V14.01,2013-02-26 04:16:00,
2013-02-25 20:21:00,49.1,43.5,30.18,SSW,202,0.0,0.0,81,0.00,,,0.00,0.00,VWS V14.01,2013-02-26 04:21:00,
2013-02-25 20:26:00,49.1,43.8,30.18,SSW,202,0.0,0.0,82,0.00,,,0.00,0.00,VWS V14.01,2013-02-26 04:26:00,
2013-02-25 20:30:00,47.5,43.5,30.18,SSW,202,0.0,2.7,86,0.00,,,0.00,0.00,VWS V14.01,2013-02-26 04:30:00,
2013-02-25 20:31:00,48.7,43.8,30.21,SSW,202,0.0,0.0,83,0.00,,,0.00,0.00,VWS V14.01,2013-02-26 04:31:00,
2013-02-25 20:36:00,48.7,43.5,30.21,SSW,202,0.0,0.0,82,0.00,,,0.00,0.00,VWS V14.01,2013-02-26 04:36:00,
2013-02-25 20:41:00,48.7,43.5,30.21,SSW,202,1.6,2.0,82,0.00,,,0.00,0.00,VWS V14.01,2013-02-26 04:41:00,
2013-02-25 20:45:00,46.9,43.6,30.21,SSW,202,2.0,2.5,88,0.00,,,0.00,0.00,VWS V14.01,2013-02-26 04:45:00,
2013-02-25 20:46:00,48.6,43.3,30.18,SSW,202,0.0,0.0,82,0.00,,,0.00,0.00,VWS V14.01,2013-02-26 04:46:00,
2013-02-25 20:51:00,48.4,43.2,30.18,SSW,202,2.5,2.5,82,0.00,,,0.00,0.00,VWS V14.01,2013-02-26 04:51:00,
2013-02-25 20:56:00,48.4,43.5,30.18,SSW,202,0.0,2.7,83,0.00,,,0.00,0.00,VWS V14.01,2013-02-26 04:56:00,
2013-02-25 21:00:00,48.2,43.3,30.18,SSW,202,0.0,0.0,83,0.00,,,0.00,0.00,VWS V14.01,2013-02-26 05:00:00,
2013-02-25 21:01:00,48.2,43.3,30.18,SSW,202,0.0,0.9,83,0.00,,,0.00,0.00,VWS V14.01,2013-02-26 05:01:00,
2013-02-25 21:04:00,48.0,43.7,30.18,SSW,202,0.9,1.6,85,0.00,,,0.00,0.00,VWS V14.01,2013-02-26 05:04:00,
2013-02-25 21:09:00,48.0,43.7,30.18,SSW,202,0.0,2.0,85,0.00,,,0.00,0.00,VWS V14.01,2013-02-26 05:09:00,
2013-02-25 21:12:00,48.0,44.0,30.18,SSW,202,0.0,2.0,86,0.00,,,0.00,0.00,VWS V14.01,2013-02-26 05:12:00,
2013-02-25 21:15:00,46.8,44.0,30.21,SSW,202,2.5,3.4,90,0.00,,,0.00,0.00,VWS V14.01,2013-02-26 05:15:00,
2013-02-25 21:17:00,47.7,44.0,30.18,SSW,202,0.0,0.0,87,0.00,,,0.00,0.00,VWS V14.01,2013-02-26 05:17:00,
2013-02-25 21:22:00,47.7,43.7,30.18,SSW,202,2.7,2.7,86,0.00,,,0.00,0.00,VWS V14.01,2013-02-26 05:22:00,
2013-02-25 21:27:00,47.7,43.7,30.18,SSW,202,0.0,2.7,86,0.00,,,0.00,0.00,VWS V14.01,2013-02-26 05:27:00,
2013-02-25 21:30:00,46.4,43.9,30.18,SSW,202,2.2,2.9,91,0.00,,,0.00,0.00,VWS V14.01,2013-02-26 05:30:00,
2013-02-25 21:32:00,47.3,43.6,30.18,SSW,202,0.0,0.0,87,0.00,,,0.00,0.00,VWS V14.01,2013-02-26 05:32:00,
2013-02-25 21:37:00,47.1,43.8,30.18,SSW,202,2.0,2.0,88,0.00,,,0.00,0.00,VWS V14.01,2013-02-26 05:37:00,
2013-02-25 21:42:00,47.1,43.8,30.21,SSW,202,2.2,2.2,88,0.00,,,0.00,0.00,VWS V14.01,2013-02-26 05:42:00,
2013-02-25 21:45:00,46.0,43.8,30.18,SSW,202,1.6,2.7,92,0.00,,,0.00,0.00,VWS V14.01,2013-02-26 05:45:00,
2013-02-25 21:47:00,46.8,43.4,30.21,SSW,202,2.7,2.7,88,0.00,,,0.00,0.00,VWS V14.01,2013-02-26 05:47:00,
2013-02-25 21:52:00,46.9,43.9,30.21,SSW,202,3.1,3.1,89,0.00,,,0.00,0.00,VWS V14.01,2013-02-26 05:52:00,
2013-02-25 21:57:00,47.1,43.8,30.21,SSW,202,3.4,3.6,88,0.00,,,0.00,0.00,VWS V14.01,2013-02-26 05:57:00,
2013-02-25 22:00:00,46.4,43.3,30.18,SW,225,2.7,3.4,89,0.00,,,0.00,0.00,VWS V14.01,2013-02-26 06:00:00,
2013-02-25 22:02:00,46.9,43.6,30.21,SSW,202,2.9,2.9,88,0.00,,,0.00,0.00,VWS V14.01,2013-02-26 06:02:00,
2013-02-25 22:07:00,46.9,44.2,30.21,SSW,202,2.7,3.4,90,0.00,,,0.00,0.00,VWS V14.01,2013-02-26 06:07:00,
2013-02-25 22:12:00,46.8,43.7,30.21,SSW,202,1.6,3.4,89,0.00,,,0.00,0.00,VWS V14.01,2013-02-26 06:12:00,
2013-02-25 22:15:00,45.7,42.6,30.18,SSW,202,2.7,2.9,89,0.00,,,0.00,0.00,VWS V14.01,2013-02-26 06:15:00,
2013-02-25 22:17:00,46.6,43.8,30.21,SSW,202,2.5,2.7,90,0.00,,,0.00,0.00,VWS V14.01,2013-02-26 06:17:00,
2013-02-25 22:22:00,46.8,44.3,30.21,SSW,202,2.5,2.9,91,0.00,,,0.00,0.00,VWS V14.01,2013-02-26 06:22:00,
2013-02-25 22:27:00,46.4,43.9,30.18,SSW,202,2.0,2.9,91,0.00,,,0.00,0.00,VWS V14.01,2013-02-26 06:27:00,
2013-02-25 22:30:00,45.9,42.2,30.18,South,180,2.2,3.8,87,0.00,,,0.00,0.00,VWS V14.01,2013-02-26 06:30:00,
2013-02-25 22:32:00,46.4,43.9,30.18,SSW,202,2.5,2.5,91,0.00,,,0.00,0.00,VWS V14.01,2013-02-26 06:32:00,
2013-02-25 22:37:00,46.2,44.0,30.18,SSW,202,2.7,2.7,92,0.00,,,0.00,0.00,VWS V14.01,2013-02-26 06:37:00,
2013-02-25 22:42:00,46.0,43.8,30.18,SSW,202,1.6,2.7,92,0.00,,,0.00,0.00,VWS V14.01,2013-02-26 06:42:00,
2013-02-25 22:45:00,45.7,42.0,30.18,SSW,202,0.0,3.1,87,0.00,,,0.00,0.00,VWS V14.01,2013-02-26 06:45:00,
2013-02-25 22:47:00,46.2,44.0,30.18,SSW,202,2.9,2.9,92,0.00,,,0.00,0.00,VWS V14.01,2013-02-26 06:47:00,
2013-02-25 22:52:00,46.4,43.9,30.18,SSW,202,2.7,3.4,91,0.00,,,0.00,0.00,VWS V14.01,2013-02-26 06:52:00,
2013-02-25 22:57:00,46.4,43.6,30.18,SW,225,3.4,3.4,90,0.00,,,0.00,0.00,VWS V14.01,2013-02-26 06:57:00,
2013-02-25 23:00:00,45.3,41.7,30.18,SSW,202,0.0,2.0,87,0.00,,,0.00,0.00,VWS V14.01,2013-02-26 07:00:00,
2013-02-25 23:02:00,46.4,43.3,30.18,SW,225,2.7,2.9,89,0.00,,,0.00,0.00,VWS V14.01,2013-02-26 07:02:00,
2013-02-25 23:07:00,46.0,43.0,30.18,SSW,202,2.5,2.9,89,0.00,,,0.00,0.00,VWS V14.01,2013-02-26 07:07:00,
2013-02-25 23:12:00,45.7,42.6,30.18,SSW,202,2.7,2.9,89,0.00,,,0.00,0.00,VWS V14.01,2013-02-26 07:12:00,
2013-02-25 23:15:00,47.7,44.3,30.18,South,180,4.3,7.6,88,0.00,,,0.00,0.00,VWS V14.01,2013-02-26 07:15:00,
2013-02-25 23:17:00,45.9,42.8,30.18,SSW,202,3.1,3.1,89,0.00,,,0.00,0.00,VWS V14.01,2013-02-26 07:17:00,
2013-02-25 23:22:00,46.0,42.4,30.18,SSW,202,3.1,3.8,87,0.00,,,0.00,0.00,VWS V14.01,2013-02-26 07:22:00,
2013-02-25 23:27:00,46.0,42.1,30.18,SSW,202,0.0,3.8,86,0.00,,,0.00,0.00,VWS V14.01,2013-02-26 07:27:00,
2013-02-25 23:30:00,47.5,43.2,30.18,SW,225,0.0,8.7,85,0.00,,,0.00,0.00,VWS V14.01,2013-02-26 07:30:00,
2013-02-25 23:32:00,45.7,42.0,30.18,SW,225,3.1,3.1,87,0.00,,,0.00,0.00,VWS V14.01,2013-02-26 07:32:00,
2013-02-25 23:37:00,46.0,42.4,30.18,SSW,202,1.6,3.1,87,0.00,,,0.00,0.00,VWS V14.01,2013-02-26 07:37:00,
2013-02-25 23:42:00,45.9,42.2,30.18,SSW,202,0.0,3.1,87,0.00,,,0.00,0.00,VWS V14.01,2013-02-26 07:42:00,
2013-02-25 23:45:00,45.1,40.9,30.18,SW,225,0.0,0.0,85,0.00,,,0.00,0.00,VWS V14.01,2013-02-26 07:45:00,
2013-02-25 23:47:00,45.7,42.0,30.18,SSW,202,0.0,0.0,87,0.00,,,0.00,0.00,VWS V14.01,2013-02-26 07:47:00,
2013-02-25 23:52:00,45.3,41.7,30.18,SSW,202,0.0,0.0,87,0.00,,,0.00,0.00,VWS V14.01,2013-02-26 07:52:00,
2013-02-25 23:57:00,45.3,41.4,30.18,SSW,202,0.0,2.0,86,0.00,,,0.00,0.00,VWS V14.01,2013-02-26 07:57:00,